Weather reports worldwide

Advertisment
Yeovilton, United Kingdom (3853): temperature & dewpoint: 12.10.2017 06:00:00 - 18.10.2017 06:00:00 (BST)Yeovilton, United Kingdom (3853): temperature -20cm & temperature -100cm: 12.10.2017 06:00:00 - 18.10.2017 06:00:00 (BST)Yeovilton, United Kingdom (3853): wind speed & gusts: 12.10.2017 06:00:00 - 18.10.2017 06:00:00 (BST)Yeovilton, United Kingdom (3853): wind direction: 12.10.2017 06:00:00 - 18.10.2017 06:00:00 (BST)Yeovilton, United Kingdom (3853): reduced air pressure: 12.10.2017 06:00:00 - 18.10.2017 06:00:00 (BST)Yeovilton, United Kingdom (3853): visibility: 12.10.2017 06:00:00 - 18.10.2017 06:00:00 (BST)Yeovilton, United Kingdom (3853): sunshine duration: 12.10.2017 06:00:00 - 18.10.2017 06:00:00 (BST)Yeovilton, United Kingdom (3853): precipitation: 12.10.2017 06:00:00 - 18.10.2017 06:00:00 (BST)
Date & Time tt [°C] td [°C] tt -20cm [°C] tt -100cm [°C] ff [km/h] ff [kn] fx [km/h] fx [kn] dd ppp [hPa] vv [km] sd [min] rr [mm]
18.10.2017 06:00:00 10,3 9,4 - - 11 6 - - NE 1011,8 10 0 0,0
18.10.2017 05:00:00 10,1 9,4 - - 8 4 - - NE 1012,6 10 0 0,0
18.10.2017 04:00:00 10,1 9,1 - - 8 4 - - ENE 1013,2 10 0 0,0
18.10.2017 03:00:00 9,8 8,8 - - 5 3 - - E 1013,8 10 0 0,0
18.10.2017 02:00:00 9,8 8,8 - - 9 5 - - NE 1014,3 10 0 0,6
18.10.2017 01:00:00 10,1 9,5 - - 5 3 - - NNE 1015,2 10 - 0,0
18.10.2017 00:00:00 10,1 9,5 - - 8 4 - - N 1016,0 10 0 0,4
17.10.2017 23:00:00 10,4 9,7 - - 8 4 - - N 1016,6 10 0 0,4
17.10.2017 22:00:00 10,6 9,5 - - 4 2 - - E 1016,9 10 0 0,4
17.10.2017 21:00:00 10,7 9,2 - - 8 4 - - ESE 1016,5 10 0 0,0
17.10.2017 20:00:00 10,6 9,8 - - 5 3 - - ESE 1016,7 10 0 0,2
17.10.2017 19:00:00 10,7 9,8 - - 4 2 - - SE 1017,1 10 0 0,0
17.10.2017 18:00:00 11,3 10,1 - - 2 1 - - SE 1017,1 10 0 0,0
17.10.2017 17:00:00 11,7 9,5 - - 5 3 - - S 1017,7 10 0 0,2
17.10.2017 16:00:00 11,7 9,6 - - 9 5 - - SE 1017,8 10 0 0,4
17.10.2017 15:00:00 12,6 9,5 - - 8 4 - - S 1019,1 10 0 0,0
17.10.2017 14:00:00 13,0 9,1 - - 2 1 - - SSW 1019,5 10 0 0,0
17.10.2017 13:00:00 12,9 9,4 - - 8 4 - - SSW 1020,6 10 0 0,0
17.10.2017 12:00:00 12,9 9,4 - - 5 3 - - SW 1020,5 10 0 0,0
17.10.2017 11:00:00 12,2 8,7 - - 5 3 - - W 1020,3 10 0 0,0
17.10.2017 10:00:00 11,7 8,3 14,5 14,7 5 3 - - SW 1020,5 10 6 0,0
17.10.2017 09:00:00 11,0 7,6 - - 13 7 - - SSW 1020,0 10 6 0,0
17.10.2017 08:00:00 9,2 6,8 - - 13 7 - - SSW 1019,5 10 0 0,0
17.10.2017 07:00:00 10,5 7,1 - - 18 10 - - SSW 1019,5 10 0 0,0
17.10.2017 06:00:00 9,6 6,8 - - 16 9 - - SSW 1019,2 10 0 0,0
17.10.2017 05:00:00 10,3 7,1 - - 13 7 - - SSW 1019,3 10 0 0,0
17.10.2017 04:00:00 10,5 7,2 - - 13 7 - - SSW 1019,3 10 0 0,0
17.10.2017 03:00:00 10,8 7,7 - - 15 8 - - SSW 1019,3 10 0 0,0
17.10.2017 02:00:00 12,1 7,4 - - 11 6 - - SW 1019,4 10 0 0,0
17.10.2017 01:00:00 12,4 7,0 - - 16 9 - - SW 1019,1 10 - 0,0
17.10.2017 00:00:00 12,9 7,1 - - 15 8 - - SW 1019,1 10 0 0,0
16.10.2017 23:00:00 13,4 7,5 - - 21 11 - - SW 1018,6 10 0 0,0
16.10.2017 22:00:00 13,5 6,8 - - 18 10 - - SW 1018,3 10 0 0,0
16.10.2017 21:00:00 14,1 8,2 - - 16 9 46 25 SW 1017,2 10 0 0,0
16.10.2017 20:00:00 14,7 7,0 - - 31 17 55 30 SW 1016,1 10 0 0,0
16.10.2017 19:00:00 14,8 7,9 - - 31 17 55 30 SW 1015,6 10 0 0,0
16.10.2017 18:00:00 15,2 8,1 - - 39 21 63 34 SSW 1014,6 10 0 0,0
16.10.2017 17:00:00 15,9 9,1 - - 35 19 57 31 SSW 1014,6 10 24 0,0
16.10.2017 16:00:00 16,6 10,2 - - 34 18 61 33 SSW 1014,0 10 30 0,0
16.10.2017 15:00:00 17,4 10,8 - - 39 21 61 33 SSW 1013,9 10 60 0,0
16.10.2017 14:00:00 17,8 11,1 - - 39 21 70 38 SSW 1013,2 10 48 0,0
16.10.2017 13:00:00 17,5 12,1 - - 44 24 68 37 SSW 1012,8 10 0 0,0
16.10.2017 12:00:00 18,2 12,5 - - 41 22 74 40 S 1012,6 10 0 0,0
16.10.2017 11:00:00 18,8 15,0 - - 41 22 61 33 S 1011,7 10 0 0,0
16.10.2017 10:00:00 18,8 14,8 14,9 14,7 35 19 55 30 S 1011,7 10 0 0,0
16.10.2017 09:00:00 19,6 14,6 - - 34 18 - - SSE 1011,9 10 0 0,0
16.10.2017 08:00:00 18,5 15,3 - - 26 14 - - SE 1010,7 10 0 0,0
16.10.2017 07:00:00 18,2 15,5 - - 35 19 48 26 SE 1011,2 10 0 0,0
16.10.2017 06:00:00 18,0 15,1 - - 26 14 - - SSE 1012,6 10 0 0,0
16.10.2017 05:00:00 18,1 14,5 - - 24 13 - - SSE 1013,8 10 0 0,0
16.10.2017 04:00:00 16,5 14,8 - - 8 4 - - ENE 1013,9 10 0 0,0
16.10.2017 03:00:00 15,3 14,5 - - 8 4 - - ESE 1014,8 10 0 0,0
16.10.2017 02:00:00 14,9 14,1 - - 9 5 - - E 1015,2 5 0 0,0
16.10.2017 01:00:00 15,1 14,5 - - 8 4 - - ENE 1015,4 6 - 0,0
16.10.2017 00:00:00 15,4 14,4 - - 13 7 - - S 1015,5 8 0 0,0
15.10.2017 23:00:00 15,4 14,7 - - 8 4 - - SSE 1015,5 7 0 0,0
15.10.2017 22:00:00 15,2 14,4 - - 13 7 - - ESE 1015,5 6 0 0,0
15.10.2017 21:00:00 15,6 14,5 - - 11 6 - - ESE 1015,4 7 0 0,0
15.10.2017 20:00:00 15,3 14,2 - - 11 6 - - SSE 1015,7 7 0 0,0
15.10.2017 19:00:00 14,9 13,2 - - 8 4 - - SSE 1015,9 6 0 0,0
15.10.2017 18:00:00 16,0 13,3 - - 16 9 - - S 1016,0 10 0 0,0
15.10.2017 17:00:00 16,7 13,1 - - 15 8 - - S 1015,9 10 54 0,0
15.10.2017 16:00:00 17,0 12,9 - - 18 10 - - S 1016,5 10 18 0,0
15.10.2017 15:00:00 17,0 12,1 - - 21 11 - - S 1017,1 10 48 0,0
15.10.2017 14:00:00 17,1 12,3 - - 22 12 - - SSW 1017,1 10 36 0,0
15.10.2017 13:00:00 16,1 12,2 - - 21 11 - - SSW 1017,5 10 0 0,0
15.10.2017 12:00:00 15,7 11,9 - - 22 12 - - SSW 1017,7 10 6 0,0
15.10.2017 11:00:00 15,5 12,4 - - 15 8 - - S 1017,6 10 0 0,0
15.10.2017 10:00:00 15,3 11,9 14,7 14,5 18 10 - - SSW 1017,8 10 0 0,0
15.10.2017 09:00:00 15,4 12,5 - - 18 10 - - SSW 1017,7 10 0 0,0
15.10.2017 08:00:00 15,5 13,6 - - 16 9 - - SSW 1017,3 10 0 0,0
15.10.2017 07:00:00 15,4 13,7 - - 16 9 - - SSW 1017,3 10 0 0,0
15.10.2017 06:00:00 15,4 14,3 - - 15 8 - - SE 1017,1 7 0 0,0
15.10.2017 05:00:00 14,4 13,5 - - 16 9 - - SE 1017,4 6 0 0,0
15.10.2017 04:00:00 13,7 13,0 - - 11 6 - - SE 1017,7 5 0 0,0
15.10.2017 03:00:00 14,2 13,5 - - 11 6 - - ESE 1018,6 5 0 0,0
15.10.2017 02:00:00 14,5 13,7 - - 11 6 - - SE 1019,5 6 0 0,0
15.10.2017 01:00:00 14,1 13,3 - - 11 6 - - SE 1020,1 5 - 0,0
15.10.2017 00:00:00 13,0 12,0 - - 13 7 - - SSE 1020,6 10 0 0,0
14.10.2017 23:00:00 13,7 12,6 - - 15 8 - - SE 1020,9 10 0 0,0
14.10.2017 22:00:00 14,0 13,0 - - 15 8 - - SE 1021,4 9 0 0,0
14.10.2017 21:00:00 13,2 12,4 - - 9 5 - - ESE 1021,9 10 0 0,0
14.10.2017 20:00:00 12,9 12,2 - - 9 5 - - SSE 1022,0 10 0 0,0
14.10.2017 19:00:00 14,4 13,1 - - 9 5 - - SSE 1022,6 10 6 0,0
14.10.2017 18:00:00 16,4 13,9 - - 11 6 - - SSE 1022,8 10 36 0,0
14.10.2017 17:00:00 17,4 14,7 - - 9 5 - - S 1023,6 10 0 0,0
14.10.2017 16:00:00 17,3 14,5 - - 11 6 - - S 1023,9 10 0 0,0
14.10.2017 15:00:00 17,5 14,7 - - 15 8 - - SSW 1024,1 10 0 0,0
14.10.2017 14:00:00 18,1 14,3 - - 11 6 - - SSW 1024,3 10 0 0,0
14.10.2017 13:00:00 18,6 13,9 - - 11 6 - - SW 1024,5 10 0 0,0
14.10.2017 12:00:00 18,4 14,6 - - 15 8 - - SSW 1024,6 10 0 0,0
14.10.2017 11:00:00 17,2 15,2 - - 15 8 - - SSW 1024,7 10 0 0,0
14.10.2017 10:00:00 16,4 15,0 14,9 14,5 11 6 - - S 1024,6 10 0 0,0
14.10.2017 09:00:00 16,0 14,8 - - 9 5 - - W 1024,3 9 0 0,0
14.10.2017 08:00:00 15,8 14,6 - - 8 4 - - S 1023,8 10 0 0,0
14.10.2017 07:00:00 15,7 14,6 - - 13 7 - - S 1023,4 9 0 0,0
14.10.2017 06:00:00 15,8 14,6 - - 16 9 - - S 1023,5 10 0 0,0
14.10.2017 05:00:00 15,8 14,5 - - 16 9 - - S 1023,3 10 0 0,0
14.10.2017 04:00:00 15,9 14,6 - - 11 6 - - S 1023,7 10 0 0,0
14.10.2017 03:00:00 16,0 14,7 - - 15 8 - - SSW 1023,8 10 0 0,0
14.10.2017 02:00:00 16,0 14,7 - - 15 8 - - SSW 1023,7 10 0 0,0
14.10.2017 01:00:00 16,1 14,8 - - 9 5 - - SSW 1023,7 10 - 0,0
14.10.2017 00:00:00 15,9 14,9 - - 22 12 - - SSW 1023,6 8 0 0,0
13.10.2017 23:00:00 15,8 14,8 - - 24 13 - - S 1023,0 10 0 0,0
13.10.2017 22:00:00 15,9 14,8 - - 26 14 - - SSW 1022,9 9 0 0,0
13.10.2017 21:00:00 16,0 14,8 - - 21 11 - - SSW 1023,1 8 0 0,0
13.10.2017 20:00:00 16,0 14,8 - - 16 9 - - SSW 1023,0 9 0 0,0
13.10.2017 19:00:00 16,2 14,7 - - 21 11 - - S 1022,7 10 0 0,0
13.10.2017 18:00:00 16,4 14,9 - - 18 10 - - S 1022,5 10 0 0,0
13.10.2017 17:00:00 16,7 15,0 - - 21 11 - - S 1022,5 10 0 0,0
13.10.2017 16:00:00 17,0 15,1 - - 21 11 - - S 1022,3 10 6 0,0
13.10.2017 15:00:00 17,4 15,1 - - 24 13 - - SSW 1022,1 10 0 0,0
13.10.2017 14:00:00 18,2 15,5 - - 24 13 - - SSW 1022,1 10 0 0,0
13.10.2017 13:00:00 17,5 15,5 - - 22 12 - - S 1022,4 10 6 0,0
13.10.2017 12:00:00 17,5 15,6 - - 26 14 - - SSW 1022,5 10 0 0,0
13.10.2017 11:00:00 16,6 15,4 - - 22 12 - - SSW 1022,3 8 0 0,0
13.10.2017 10:00:00 16,6 15,2 14,4 14,5 18 10 - - SSW 1022,1 10 0 0,0
13.10.2017 09:00:00 16,1 15,1 - - 16 9 - - S 1021,3 10 0 0,2
13.10.2017 08:00:00 16,0 15,0 - - 15 8 - - SW 1021,1 8 0 0,0
13.10.2017 07:00:00 15,9 15,0 - - 16 9 - - S 1020,6 10 0 0,0
13.10.2017 06:00:00 15,9 14,9 - - 22 12 - - SSW 1020,5 10 0 0,0
13.10.2017 05:00:00 15,9 15,0 - - 15 8 - - SW 1020,6 10 0 0,0
13.10.2017 04:00:00 15,6 14,9 - - 21 11 - - SSW 1020,6 10 0 0,0
13.10.2017 03:00:00 15,5 14,3 - - 24 13 - - SSW 1020,2 10 0 0,0
13.10.2017 02:00:00 15,1 14,0 - - 28 15 - - SSW 1020,8 10 0 0,0
13.10.2017 01:00:00 14,4 13,1 - - 26 14 - - SSW 1020,9 10 - 0,0
13.10.2017 00:00:00 14,6 13,0 - - 13 7 - - SSW 1021,3 10 0 0,0
12.10.2017 23:00:00 13,6 12,0 - - 13 7 - - S 1021,2 10 0 0,0
12.10.2017 22:00:00 13,9 11,4 - - 18 10 - - SSW 1021,6 10 0 0,0
12.10.2017 21:00:00 11,2 9,7 - - 4 2 - - SE 1021,6 10 0 0,0
12.10.2017 20:00:00 12,1 10,4 - - 13 7 - - S 1021,6 10 0 0,0
12.10.2017 19:00:00 12,6 10,3 - - 15 8 - - SSW 1021,4 10 6 0,0
12.10.2017 18:00:00 14,4 10,0 - - 18 10 - - SSW 1021,2 10 48 0,0
12.10.2017 17:00:00 15,5 10,0 - - 22 12 - - SSW 1021,0 10 60 0,0
12.10.2017 16:00:00 16,2 9,6 - - 24 13 - - SSW 1021,1 10 48 0,0
12.10.2017 15:00:00 15,6 9,3 - - 22 12 - - SSW 1021,5 10 30 0,0
12.10.2017 14:00:00 15,8 8,9 - - 13 7 - - SW 1021,6 10 6 0,0
12.10.2017 13:00:00 16,2 9,2 - - 18 10 - - SSW 1021,8 10 48 0,0
12.10.2017 12:00:00 15,6 9,1 - - 18 10 - - SW 1022,0 10 60 0,0
12.10.2017 11:00:00 15,1 11,1 - - 13 7 - - SW 1021,5 10 60 0,0
12.10.2017 10:00:00 13,7 10,3 14,2 14,5 13 7 - - SW 1021,0 10 60 0,0
12.10.2017 09:00:00 11,6 9,5 - - 16 9 - - SSW 1020,4 10 24 0,0
12.10.2017 08:00:00 10,6 8,8 - - 9 5 - - WSW 1019,8 10 0 0,0
12.10.2017 07:00:00 10,9 8,7 - - 13 7 - - SW 1019,0 10 0 0,0
12.10.2017 06:00:00 10,7 8,8 - - 11 6 - - WSW 1018,3 10 0 0,0

tt = temperature
td = dewpoint
tt -20cm = temperature -20cm
tt -100cm = temperature -100cm
ff = wind speed
fx = gusts
dd = wind direction
ppp = reduced air pressure
vv = visibility
sd = sunshine duration
rr = precipitation

Next stations